Cross City, FL

9:20 PM EST on December 15, 2019 (GMT -0500)
Cross City

Weather History for KCTY - October, 2019

Change the Weather History Date:

Sunday, October 6, 2019

  Actual Average Record
Temperature  
Mean Temperature 80 °F 74 °F  
Max Temperature 89 °F 85 °F 93 °F (2002)
Min Temperature 70 °F 62 °F 46 °F (2010)
Degree Days  
Heating Degree Days 0    
Month to date heating degree days 0  
Since 1 July heating degree days 0  
Cooling Degree Days 15    
Month to date cooling degree days 86  
Year to date cooling degree days 2843  
Growing Degree Days 30 (Base 50)    
Moisture  
Dew Point 70 °F    
Average Humidity 77    
Maximum Humidity 98    
Minimum Humidity 44    
Precipitation  
Precipitation 0.00 in 0.15 in 0.45 in (2008)
Month to date precipitation 0.00 0.91  
Year to date precipitation 47.47 40.74  
Sea Level Pressure  
Sea Level Pressure 30.04 in    
Wind  
Wind Speed 8 mph (ENE)    
Max Wind Speed 13 mph    
Max Gust Speed 25 mph    
Visibility 10 miles    
Events      
T = Trace of Precipitation, MM = Missing Value Source: NWS Daily Summary

Daily Weather History Graph

Daily Weather History Graph

Search for Another Location

Airport or City:

Astronomy

Oct. 06, 2019 Rise Set
Actual Time 7:28 AM EDT 7:12 PM EDT
Civil Twilight 7:04 AM EDT 7:36 PM EDT
Nautical Twilight 6:36 AM EDT 8:03 PM EDT
Astronomical Twilight 6:09 AM EDT 8:31 PM EDT
Moon 3:17 PM EDT (10/6) 12:59 AM EDT (10/6)
Length of Visible Light 12h 31m
Length of Day
11h 43m
First Quarter, 59% of the Moon is Illuminated
Oct 6
First Quarter
Oct 13
Full
Oct 21
Last Quarter
Oct 27
New
Nov 4
First Quarter

Hourly Weather History & Observations

Time (EDT) Temp. Heat Index Dew Point Humidity Pressure Visibility Wind Dir Wind Speed Gust Speed Precip Events Conditions
12:15 AM 74.5 °F - 70.9 °F 88% 30.04 in 10.0 mi ENE 3.5 mph - N/A   Clear
12:35 AM 74.1 °F - 70.9 °F 90% 30.03 in 10.0 mi ENE 4.6 mph - N/A   Clear
12:55 AM 73.9 °F - 71.1 °F 91% 30.03 in 10.0 mi ENE 3.5 mph - N/A   Clear
1:35 AM 73.6 °F - 71.1 °F 92% 30.03 in 10.0 mi NE 4.6 mph - N/A   Clear
1:55 AM 73.2 °F - 71.1 °F 93% 30.03 in 10.0 mi NE 3.5 mph - N/A   Clear
2:15 AM 73.4 °F - 71.6 °F 94% 30.03 in 10.0 mi NE 5.8 mph - N/A   Clear
2:35 AM 73.0 °F - 71.1 °F 93% 30.02 in 10.0 mi NE 4.6 mph - N/A   Clear
2:55 AM 72.5 °F - 71.1 °F 95% 30.02 in 10.0 mi NE 3.5 mph - N/A   Clear
3:15 AM 72.0 °F - 70.7 °F 96% 30.02 in 10.0 mi Calm Calm - N/A   Clear
3:35 AM 70.7 °F - 69.8 °F 97% 30.01 in 10.0 mi NNE 4.6 mph - N/A   Clear
3:55 AM 70.7 °F - 69.8 °F 97% 30.02 in 10.0 mi NNE 5.8 mph - N/A   Clear
4:15 AM 70.3 °F - 69.6 °F 98% 30.02 in 10.0 mi NNE 4.6 mph - N/A   Clear
4:35 AM 70.5 °F - 70.0 °F 98% 30.02 in 10.0 mi NE 4.6 mph - N/A   Clear
4:55 AM 70.7 °F - 70.2 °F 98% 30.03 in 10.0 mi NNE 5.8 mph - N/A   Clear
5:15 AM 71.1 °F - 70.3 °F 98% 30.03 in 10.0 mi NE 4.6 mph - N/A   Clear
5:35 AM 71.2 °F - 70.2 °F 96% 30.03 in 10.0 mi NE 5.8 mph - N/A   Clear
5:55 AM 71.1 °F - 70.0 °F 96% 30.03 in 10.0 mi NNE 5.8 mph - N/A   Scattered Clouds
6:15 AM 71.1 °F - 70.0 °F 96% 30.04 in 10.0 mi NE 4.6 mph - N/A   Scattered Clouds
6:35 AM 71.4 °F - 70.0 °F 95% 30.04 in 10.0 mi NE 4.6 mph - N/A   Scattered Clouds
6:55 AM 71.4 °F - 70.2 °F 96% 30.04 in 10.0 mi NE 4.6 mph - N/A   Clear
7:15 AM 71.4 °F - 70.2 °F 96% 30.04 in 10.0 mi NE 4.6 mph - N/A   Unknown
7:35 AM 71.1 °F - 70.0 °F 96% 30.05 in 10.0 mi NE 3.5 mph - N/A   Unknown
7:50 AM 71.1 °F - 70.0 °F 96% 30.06 in 10.0 mi NNE 3.5 mph - N/A   Scattered Clouds
8:15 AM 71.8 °F - 70.5 °F 96% 30.06 in 10.0 mi NE 5.8 mph - N/A   Scattered Clouds
8:35 AM 72.5 °F - 70.7 °F 94% 30.07 in 10.0 mi NE 6.9 mph - N/A   Unknown
8:55 AM 73.4 °F - 71.6 °F 94% 30.07 in 10.0 mi NE 5.8 mph - N/A   Unknown
9:15 AM 73.8 °F - 71.1 °F 91% 30.07 in 10.0 mi NE 5.8 mph - N/A   Unknown
9:35 AM 75.0 °F - 71.6 °F 89% 30.08 in 10.0 mi ENE 6.9 mph - N/A   Unknown
9:55 AM 77.0 °F - 72.1 °F 85% 30.08 in 10.0 mi ENE 6.9 mph - N/A   Unknown
10:15 AM 79.7 °F - 72.0 °F 77% 30.08 in 10.0 mi ENE 11.5 mph 16.1 mph N/A   Unknown
10:55 AM 82.9 °F 87.7 °F 71.2 °F 68% 30.08 in 10.0 mi ENE 12.7 mph 19.6 mph N/A   Unknown
11:15 AM 83.7 °F 88.3 °F 70.7 °F 65% 30.07 in 10.0 mi ENE 9.2 mph 18.4 mph N/A   Unknown
11:35 AM 83.1 °F 86.8 °F 69.4 °F 63% 30.08 in 10.0 mi ENE 11.5 mph 19.6 mph N/A   Unknown
11:55 AM 85.1 °F 89.1 °F 69.4 °F 59% 30.08 in 10.0 mi East 12.7 mph - N/A   Unknown
12:15 PM 83.5 °F 86.7 °F 68.4 °F 60% 30.08 in 10.0 mi ENE 13.8 mph 20.7 mph N/A   Unknown
12:35 PM 84.7 °F 87.6 °F 67.6 °F 56% 30.08 in 10.0 mi East 11.5 mph 24.2 mph N/A   Unknown
12:55 PM 85.6 °F 88.5 °F 67.3 °F 54% 30.07 in 10.0 mi East 12.7 mph 23.0 mph N/A   Unknown
1:15 PM 83.8 °F 86.0 °F 66.2 °F 55% 30.06 in 10.0 mi ENE 15.0 mph 25.3 mph N/A   Unknown
1:35 PM 85.6 °F 88.5 °F 67.5 °F 54% 30.05 in 10.0 mi ENE 12.7 mph - N/A   Unknown
1:55 PM 85.6 °F 88.5 °F 67.5 °F 54% 30.04 in 10.0 mi ENE 11.5 mph 21.9 mph N/A   Unknown
2:15 PM 86.7 °F 90.3 °F 68.0 °F 54% 30.03 in 10.0 mi ENE 9.2 mph 19.6 mph N/A   Unknown
2:30 PM 85.8 °F 88.5 °F 66.9 °F 53% 30.02 in 10.0 mi East 12.7 mph 20.7 mph N/A   Unknown
2:55 PM 86.5 °F 89.3 °F 67.3 °F 52% 30.02 in 10.0 mi East 8.1 mph 18.4 mph N/A   Scattered Clouds
3:15 PM 88.5 °F 91.9 °F 67.6 °F 50% 30.02 in 10.0 mi East 12.7 mph 19.6 mph N/A   Scattered Clouds
3:35 PM 88.3 °F 91.6 °F 67.6 °F 50% 30.01 in 10.0 mi East 10.4 mph 18.4 mph N/A   Scattered Clouds
3:55 PM 88.7 °F 92.2 °F 67.6 °F 50% 30.01 in 10.0 mi East 10.4 mph 18.4 mph N/A   Clear
4:15 PM 86.9 °F 90.3 °F 67.6 °F 53% 30.01 in 10.0 mi East 12.7 mph 18.4 mph N/A   Unknown
4:35 PM 87.1 °F 90.9 °F 68.4 °F 54% 30.01 in 10.0 mi ENE 6.9 mph - N/A   Unknown
4:55 PM 87.1 °F 91.3 °F 68.9 °F 55% 30.00 in 10.0 mi East 9.2 mph 17.3 mph N/A   Mostly Cloudy
5:15 PM 85.1 °F 88.8 °F 68.9 °F 58% 30.00 in 10.0 mi ENE 10.4 mph 18.4 mph N/A   Mostly Cloudy
5:35 PM 84.4 °F 87.6 °F 68.4 °F 58% 30.00 in 10.0 mi ENE 9.2 mph - N/A   Mostly Cloudy
5:55 PM 84.2 °F 88.1 °F 69.3 °F 61% 30.00 in 10.0 mi ENE 6.9 mph - N/A   Scattered Clouds
6:10 PM 84.2 °F 88.1 °F 69.4 °F 61% 30.00 in 10.0 mi NE 9.2 mph - N/A   Clear
6:55 PM 81.7 °F 84.5 °F 68.2 °F 63% 30.00 in 10.0 mi ENE 9.2 mph - N/A   Clear
7:15 PM 80.8 °F 83.6 °F 68.4 °F 66% 30.00 in 10.0 mi East 5.8 mph - N/A   Clear
7:35 PM 79.9 °F - 68.4 °F 68% 30.01 in 10.0 mi ENE 8.1 mph - N/A   Clear
7:55 PM 79.3 °F - 68.2 °F 69% 30.01 in 10.0 mi ENE 6.9 mph - N/A   Clear
8:15 PM 79.0 °F - 68.5 °F 70% 30.01 in 10.0 mi ENE 9.2 mph - N/A   Unknown
8:35 PM 78.6 °F - 68.7 °F 72% 30.02 in 10.0 mi ENE 6.9 mph - N/A   Unknown
8:55 PM 78.4 °F - 69.4 °F 74% 30.03 in 10.0 mi ENE 10.4 mph - N/A   Unknown
9:10 PM 78.3 °F - 69.6 °F 75% 30.03 in 10.0 mi ENE 8.1 mph - N/A   Unknown
9:35 PM 77.7 °F - 69.6 °F 76% 30.04 in 10.0 mi ENE 9.2 mph 16.1 mph N/A   Clear
9:55 PM 77.2 °F - 69.6 °F 77% 30.04 in 10.0 mi ENE 8.1 mph - N/A   Clear
10:15 PM 76.8 °F - 69.6 °F 78% 30.04 in 10.0 mi ENE 8.1 mph - N/A   Clear
10:35 PM 76.3 °F - 70.0 °F 81% 30.05 in 10.0 mi ENE 8.1 mph - N/A   Clear
10:55 PM 76.3 °F - 70.3 °F 82% 30.04 in 10.0 mi NE 6.9 mph - N/A   Clear
11:15 PM 75.9 °F - 70.3 °F 83% 30.04 in 10.0 mi NE 6.9 mph - N/A   Clear
11:35 PM 75.7 °F - 70.3 °F 83% 30.04 in 10.0 mi ENE 5.8 mph - N/A   Clear
11:55 PM 75.4 °F - 70.2 °F 84% 30.04 in 10.0 mi ENE 5.8 mph - N/A   Clear